Theta_e
291 291 291 291 290 290 290 289 289 289 288 288 288 288 287 287 287 287 286 286 286 286 285 285 285 285 285 285 284 284 284 284 284 283 283 282 282 282 282 282 282 281 281 281 281 280 280 280 279 279 279 279 278 278 277 277 277 276 276 276 276 275 275 276 276 276 278 278 277 276 276 275 275 275 274 274 274 274 274 275 275 275 275 275 275
291 291 290 290 290 289 289 289 289 288 288 288 287 287 287 287 287 286 286 286 286 285 285 285 285 285 285 284 284 284 284 283 283 282 282 282 282 281 281 281 281 281 281 280 280 280 280 279 279 279 278 278 278 277 277 276 276 276 275 275 275 274 274 275 275 275 276 276 276 275 275 274 274 274 274 274 274 274 274 274 274 274 274 275 275
290 290 290 290 289 289 289 289 288 288 288 287 287 287 287 286 286 286 286 286 285 285 285 285 285 285 284 284 284 284 283 283 282 282 282 281 281 281 281 281 281 280 280 280 279 279 279 279 279 278 278 278 277 277 276 276 275 275 275 275 274 274 274 274 274 274 274 274 274 274 274 273 273 273 273 273 273 273 274 274 274 274 274 274 275
290 290 290 289 289 289 288 288 288 288 287 287 287 287 286 286 286 286 286 286 286 285 285 285 285 285 284 284 284 283 283 282 282 281 281 281 281 280 280 280 280 280 280 279 279 279 279 279 278 278 278 277 277 276 276 275 275 275 274 274 274 273 273 273 273 273 273 273 273 273 273 273 273 273 273 273 273 273 273 274 274 274 274 274 274
290 289 289 289 288 288 288 288 288 288 287 287 287 286 286 286 286 286 286 286 286 286 285 285 285 284 284 284 283 283 282 282 281 281 280 280 280 280 280 280 280 279 279 279 279 279 278 278 278 278 277 277 276 276 275 275 275 274 274 274 274 273 273 273 273 273 273 273 273 273 272 272 272 272 273 273 273 273 273 274 274 274 274 274 274
289 289 289 288 288 288 288 288 288 288 287 287 287 286 286 286 286 286 286 286 286 286 285 285 285 284 284 284 283 282 282 281 281 280 280 280 280 280 280 280 279 279 279 279 278 278 278 278 278 277 277 276 276 275 275 275 274 274 274 274 274 273 273 273 273 273 273 273 273 272 272 272 272 272 273 273 273 273 274 274 274 274 274 274 275
289 289 288 288 288 288 288 288 288 287 287 287 286 286 286 286 286 286 286 286 286 286 285 285 284 284 284 283 282 282 281 281 280 280 280 280 280 280 279 279 279 279 279 278 278 278 278 278 277 277 276 276 275 275 275 274 274 274 274 274 274 273 273 273 273 273 273 273 273 273 272 272 273 273 273 273 273 274 274 274 274 274 275 275 275
289 288 288 288 288 288 288 288 288 287 287 287 286 286 286 286 286 286 286 286 286 286 285 285 284 284 284 283 282 281 281 281 280 280 280 280 280 279 279 279 279 278 278 278 278 278 278 278 277 277 276 275 275 275 274 274 274 274 274 274 274 273 273 273 273 273 273 273 273 273 273 273 273 273 274 274 274 274 274 275 275 275 275 275 275
288 288 288 288 288 288 288 288 288 287 287 286 286 286 286 286 286 286 286 286 286 285 285 285 285 284 284 283 282 281 281 281 281 280 280 279 279 279 279 278 278 278 278 278 278 278 278 277 277 276 276 275 275 274 274 274 274 274 274 274 274 274 274 274 274 274 274 273 273 273 273 274 274 274 274 274 274 275 275 275 275 275 275 275 275
288 288 287 287 288 288 287 287 287 287 287 286 286 286 286 286 286 285 285 285 285 285 285 285 285 284 284 283 282 281 281 281 281 281 280 279 279 279 279 279 278 278 278 278 278 278 278 277 277 276 275 275 275 274 273 273 273 274 274 274 274 274 274 274 274 274 274 274 274 274 274 274 274 274 274 275 275 275 275 275 275 275 275 276 276
288 287 287 287 287 287 287 287 287 287 287 286 286 286 286 286 286 285 285 285 285 285 285 285 284 284 283 283 282 282 282 282 281 281 280 280 279 279 279 278 278 278 278 278 278 278 278 277 276 276 275 275 275 274 273 273 273 273 273 274 274 274 274 274 274 274 274 274 274 275 275 275 275 275 275 275 275 275 275 275 275 276 276 276 276
287 287 287 287 287 287 286 286 286 286 287 286 286 286 286 286 286 285 285 286 285 285 285 285 284 284 283 283 282 282 282 281 281 281 280 279 279 279 279 278 278 278 278 278 278 278 277 277 276 276 275 275 274 274 273 273 272 272 273 273 274 274 275 275 275 275 275 275 275 275 275 275 275 275 275 275 275 276 276 276 276 276 276 276 276
287 287 287 287 286 286 286 286 286 286 287 287 286 286 286 286 286 286 286 285 285 285 285 284 284 284 283 283 282 282 281 281 281 281 281 279 278 278 278 278 277 277 277 277 277 277 277 276 276 275 275 274 274 274 273 273 273 273 273 274 274 275 275 275 276 276 275 275 275 275 275 275 275 275 275 275 275 276 276 276 276 276 276 276 276
287 287 287 286 286 286 286 285 285 286 286 286 286 286 286 286 286 286 286 285 285 285 285 284 284 284 283 283 282 281 281 281 281 281 280 279 278 278 278 278 277 277 277 277 277 277 276 275 275 275 274 274 274 273 273 273 273 273 274 275 275 275 275 275 275 275 275 275 275 275 275 275 275 275 275 275 275 276 275 275 275 275 275 275 274
287 287 286 286 286 285 285 285 285 285 286 286 286 286 286 286 286 286 286 285 285 285 285 285 284 284 283 283 282 281 280 280 281 281 280 279 278 277 277 277 277 277 277 276 276 276 276 275 275 274 274 273 273 273 273 273 274 274 275 275 275 275 274 274 274 275 275 275 274 274 274 274 274 274 275 275 275 274 274 273 273 273 273 273 273
287 287 286 286 286 285 285 285 285 285 285 285 285 286 286 286 286 286 285 285 285 285 285 285 284 284 283 282 282 282 280 280 280 280 279 279 278 277 277 277 277 276 276 276 276 276 275 275 274 274 273 273 273 273 273 274 275 275 276 275 275 274 274 274 274 274 274 273 273 274 274 274 274 274 273 273 273 272 272 272 272 272 272 273 273
287 287 286 286 286 285 285 285 285 284 284 284 285 286 286 286 286 286 286 285 285 285 285 284 284 284 283 282 282 281 280 280 280 279 279 278 278 277 277 276 276 276 276 275 275 275 275 274 274 273 272 272 273 273 274 275 276 276 275 274 274 274 274 273 272 272 272 273 273 273 272 272 271 271 271 271 271 271 271 270 271 271 272 272 273
287 286 286 286 286 285 285 285 285 284 284 285 285 286 286 287 286 286 286 286 286 285 285 285 284 284 283 283 282 281 280 279 279 279 279 278 277 277 277 276 275 275 275 275 275 275 274 274 273 272 272 272 273 274 275 276 276 275 274 274 274 274 273 272 272 272 272 272 272 271 271 270 270 269 269 269 269 269 269 269 270 270 271 272 272
287 286 286 286 286 285 285 285 284 284 285 285 286 286 286 287 286 286 286 286 286 285 285 284 284 284 283 282 281 281 280 279 279 279 278 277 277 276 276 275 275 275 275 274 274 274 274 273 273 272 272 273 274 275 276 276 275 275 275 275 274 273 272 272 272 272 272 271 271 270 270 270 269 268 267 267 267 268 268 269 269 270 270 271 271
287 287 286 286 286 286 285 285 284 284 285 286 286 285 286 286 286 286 285 285 285 285 284 284 284 284 283 282 281 281 280 279 279 279 278 277 276 275 275 275 275 275 274 273 273 272 272 272 272 272 273 274 275 275 275 275 275 275 275 274 273 272 272 272 272 272 271 270 269 269 269 269 267 266 266 266 266 267 267 268 268 268 268 269 269
287 287 286 286 286 286 285 285 285 285 285 285 285 285 285 285 286 286 285 284 284 283 284 283 283 283 283 282 281 280 280 279 279 278 277 276 275 275 275 275 275 275 274 273 272 271 271 271 271 272 273 274 274 275 275 275 275 275 274 273 272 272 273 272 272 271 270 269 269 269 269 267 266 265 265 266 266 266 266 266 266 267 267 267 268
287 287 286 286 286 285 285 285 285 285 285 284 284 284 284 284 284 284 284 283 283 282 282 282 283 282 282 281 281 280 280 279 279 278 277 276 275 274 274 275 275 274 273 272 271 271 271 271 271 272 273 274 274 274 275 275 274 274 273 272 272 272 272 272 270 270 269 269 269 269 267 266 265 265 265 265 266 266 266 266 266 266 267 267 267
287 287 286 286 286 286 285 285 285 284 284 284 283 283 283 282 282 282 282 282 281 281 281 281 281 281 281 280 280 280 280 279 278 277 276 275 274 274 274 274 274 273 272 272 271 271 271 272 272 272 273 274 274 274 274 274 273 272 272 272 272 272 271 270 269 269 269 268 268 267 266 265 265 265 265 265 265 266 266 266 266 266 267 267 267
287 287 287 286 286 286 286 285 285 284 284 283 283 282 282 281 281 280 280 280 280 279 279 279 279 280 280 280 280 280 280 279 278 277 276 275 274 274 274 274 274 273 273 272 271 271 272 272 272 272 273 274 274 274 273 272 271 271 271 271 271 270 269 269 268 268 268 267 267 266 265 265 265 265 265 265 265 266 266 266 266 266 267 267 267
287 287 287 287 286 286 285 285 285 284 284 283 283 282 282 281 280 280 279 279 279 279 278 278 278 279 279 279 280 280 280 279 277 276 276 275 274 274 273 273 274 274 274 273 273 273 273 273 273 274 274 275 274 273 272 271 270 270 270 270 270 269 268 268 267 267 267 266 266 265 265 265 265 265 265 265 266 266 266 266 266 266 266 266 267
288 288 288 287 286 286 285 285 284 284 283 283 283 282 282 281 281 280 279 278 278 278 277 277 277 277 277 278 279 279 279 278 277 276 276 275 274 274 273 273 273 274 274 274 274 274 274 274 274 274 275 275 273 272 271 270 270 269 269 269 269 268 268 267 266 266 266 266 265 265 265 265 265 265 265 265 266 266 266 266 266 266 266 266 266
289 289 288 287 286 286 285 285 284 283 283 282 282 281 281 281 280 279 279 278 277 277 276 276 276 275 276 277 277 278 278 277 276 276 276 275 275 274 273 273 273 274 274 274 274 273 273 274 274 274 274 273 272 271 271 270 269 269 269 269 268 267 267 266 266 265 265 265 265 265 265 265 265 265 265 265 266 266 266 266 266 266 266 266 266
289 289 288 287 286 286 285 285 284 283 283 282 281 281 281 280 280 280 280 280 279 278 277 276 276 276 276 275 275 276 276 276 276 277 277 276 275 274 273 273 273 273 273 272 272 272 272 272 272 272 272 272 272 271 271 270 270 269 269 268 268 267 266 266 265 265 265 265 265 265 265 265 265 265 265 265 265 266 266 266 266 266 266 266 266
288 288 287 287 286 286 285 284 284 283 282 282 281 281 281 280 280 280 280 280 279 278 277 277 277 276 276 276 276 276 276 277 277 277 276 275 274 273 273 273 272 272 272 271 271 271 271 271 271 272 272 272 272 271 271 271 270 269 268 268 267 267 266 266 265 265 265 264 264 264 264 264 265 265 265 265 265 265 266 266 266 266 266 266 266
287 287 286 286 286 285 285 284 283 283 282 281 280 280 279 279 278 278 278 278 277 277 277 277 276 276 276 276 276 276 276 276 276 275 274 273 273 273 272 272 272 272 271 272 272 272 272 272 272 272 272 271 271 271 270 270 269 269 268 268 267 266 266 266 265 265 264 264 264 264 264 264 264 264 265 265 265 265 265 265 265 265 265 265 265
286 286 286 286 286 285 285 284 283 282 281 280 279 278 278 277 277 276 276 276 276 275 275 275 275 275 275 275 275 275 274 273 273 272 272 272 272 272 273 273 272 272 272 272 273 273 273 272 272 272 271 271 270 270 270 269 269 268 267 267 267 266 266 265 265 264 264 264 264 264 264 264 264 264 264 265 265 265 265 265 265 265 265 265 265
286 286 286 286 285 285 284 283 282 281 280 278 277 277 276 275 275 275 274 274 274 274 273 273 273 274 274 274 273 273 273 272 272 272 272 272 272 273 273 274 274 274 274 274 274 274 273 273 272 272 271 271 270 270 270 269 268 267 267 266 266 266 265 265 264 264 264 264 264 264 263 263 264 264 264 265 265 265 265 265 265 265 265 265 265
286 286 285 285 284 283 283 282 281 280 279 278 277 276 275 274 273 273 273 273 272 272 272 272 273 273 274 273 273 273 272 272 272 272 272 273 273 273 274 274 274 275 275 275 275 274 273 272 272 272 271 271 270 270 269 269 268 267 266 266 266 266 265 264 264 264 264 263 263 263 263 263 263 264 264 264 264 264 265 265 265 265 264 265 265
285 284 284 284 283 283 282 281 280 279 278 277 276 275 274 274 273 272 272 272 272 272 272 273 273 273 273 274 274 273 273 273 273 273 273 273 274 274 274 274 274 274 274 274 274 273 273 272 272 271 271 271 270 269 268 268 267 266 266 265 265 265 265 264 264 264 263 263 263 263 263 263 263 263 264 264 264 264 264 265 264 264 264 265 265
284 283 283 282 282 281 281 280 279 278 277 276 275 274 273 273 272 271 271 271 271 271 272 272 273 273 273 273 273 274 274 274 274 274 274 274 274 274 274 274 273 273 273 273 273 272 272 271 271 271 271 270 269 268 268 267 266 265 265 265 265 264 264 264 264 264 263 263 263 263 262 262 263 263 263 264 264 264 264 264 264 264 264 264 265
282 281 281 280 280 279 279 278 278 277 276 275 274 273 273 272 271 271 270 270 270 270 271 271 272 273 273 273 272 272 272 272 272 273 273 273 273 273 273 273 272 272 271 271 271 270 270 270 270 270 270 269 268 268 267 266 265 265 264 264 264 264 264 264 263 263 263 263 263 263 262 262 262 263 263 263 263 264 264 264 264 264 264 264 264
280 280 279 279 278 277 277 276 276 275 274 274 273 272 271 271 270 269 269 269 269 269 270 270 271 271 272 271 271 270 270 270 270 270 270 271 271 272 272 271 271 270 270 270 270 269 269 270 270 269 269 268 267 267 266 265 265 264 264 264 263 263 263 263 263 263 263 263 263 262 262 262 262 262 262 263 263 263 263 264 264 264 264 264 264
278 278 278 277 277 276 275 275 274 273 273 272 271 271 270 269 269 268 268 268 268 268 268 268 269 269 270 270 269 269 269 268 268 268 268 268 269 269 270 270 270 269 269 269 269 269 268 268 268 268 268 267 266 266 265 265 264 264 263 263 263 263 263 263 263 263 262 262 262 262 262 262 262 262 262 262 263 263 263 264 264 264 263 263 263
277 276 276 275 274 274 273 273 272 272 271 270 270 269 269 268 268 267 267 267 267 267 267 267 267 268 268 268 268 267 267 267 266 266 266 266 266 266 267 267 267 267 267 267 267 267 267 267 267 267 266 266 265 265 264 264 263 263 263 263 263 263 263 263 263 263 262 262 262 262 261 261 261 261 262 262 262 263 263 263 264 263 263 263 263
275 274 274 273 272 272 272 271 271 270 270 270 269 269 268 268 267 267 267 266 266 266 266 266 267 267 267 267 266 266 265 264 264 264 264 264 264 264 265 265 265 265 265 265 265 265 266 266 266 266 265 265 264 264 263 263 263 263 262 262 262 263 263 263 263 262 262 262 262 261 261 261 261 261 261 261 262 262 263 263 263 263 263 262 262
272 272 271 270 270 270 270 270 270 269 269 269 268 268 267 267 267 266 266 266 266 266 265 266 266 266 265 265 264 264 264 263 263 263 263 263 263 263 264 264 264 264 264 264 264 264 264 264 264 264 264 263 263 263 262 262 262 262 262 262 262 262 262 262 262 262 262 261 261 261 261 260 260 260 260 260 261 262 262 263 262 262 262 262 262
270 270 269 269 269 269 268 268 268 268 268 268 267 267 267 266 266 266 266 265 265 265 265 265 265 264 264 263 263 263 264 264 263 263 263 262 262 263 263 263 263 263 263 263 263 263 263 263 263 263 263 263 263 262 262 262 262 262 262 262 262 261 262 262 262 262 261 261 261 260 260 260 260 260 260 260 261 261 262 262 262 262 262 262 262
268 268 268 268 267 267 267 267 267 267 266 266 266 266 266 266 265 265 265 265 264 264 264 264 263 263 263 262 262 262 263 263 262 262 262 262 262 262 262 263 262 262 262 262 262 262 262 262 262 262 262 262 262 262 262 262 262 261 261 261 261 261 261 261 261 261 261 261 260 260 260 260 260 260 260 260 260 260 261 262 262 262 262 262 262
267 267 267 267 266 266 266 266 266 266 265 265 265 265 265 265 265 264 264 264 263 263 263 263 262 262 262 262 261 261 262 262 262 262 261 261 262 262 263 263 262 262 262 262 262 262 261 262 262 262 262 262 262 262 262 262 261 261 261 261 261 261 261 261 261 261 261 260 260 260 260 260 260 260 259 259 259 259 261 262 262 262 262 262 262
266 266 266 266 266 266 266 265 265 265 265 264 264 264 264 264 264 263 263 263 262 262 262 262 261 261 262 262 261 261 261 261 261 261 261 262 262 262 262 262 262 262 262 262 262 261 261 261 262 262 262 262 262 262 262 261 261 261 261 260 260 261 261 261 261 261 260 260 260 260 260 260 260 260 259 259 259 259 260 261 262 262 262 262 262
265 265 265 265 265 265 265 265 265 264 264 264 263 263 263 263 262 262 262 262 261 261 261 261 261 261 261 261 261 261 261 261 261 261 261 261 261 261 261 261 261 261 261 261 261 261 261 261 261 261 261 262 261 261 261 261 261 261 260 260 260 261 261 261 260 260 260 260 259 259 259 260 260 260 259 258 258 259 260 262 262 262 262 262 262
265 265 265 265 265 264 264 264 264 263 263 263 263 262 262 262 262 261 261 261 261 261 261 261 261 260 260 260 260 261 261 261 262 262 262 261 261 261 261 261 261 261 261 261 261 261 261 261 261 261 261 261 261 261 261 261 261 261 261 260 260 260 260 260 260 259 259 259 259 259 259 259 259 259 259 258 258 259 261 262 262 262 262 262 262
265 264 264 264 264 264 263 263 263 263 262 262 262 262 261 261 261 261 261 261 261 261 260 260 260 260 260 261 261 261 262 262 262 262 262 261 261 261 261 261 261 261 261 261 261 261 261 261 261 261 261 261 261 261 261 261 261 261 261 260 260 260 260 259 259 259 259 259 259 259 259 259 259 259 259 259 259 260 261 261 261 262 262 262 262
264 264 264 264 263 263 263 263 262 262 262 261 261 261 261 261 261 261 261 261 260 260 260 260 260 261 261 262 262 262 262 261 261 261 261 261 262 262 262 261 261 261 261 261 261 261 261 261 261 261 261 261 261 261 261 261 260 260 260 260 260 260 259 259 259 259 259 259 259 259 258 258 258 258 258 258 259 259 259 260 260 261 262 262 263
263 263 263 263 262 262 262 262 261 261 261 261 261 261 261 261 261 261 260 260 260 260 261 261 261 262 262 262 262 262 261 261 261 261 261 262 262 262 261 261 261 261 261 261 261 261 261 261 260 260 260 260 260 260 260 260 260 260 260 260 260 260 260 260 259 259 259 259 259 258 258 258 258 258 258 258 258 258 259 259 260 261 261 262 262
262 262 262 262 262 261 261 261 261 261 261 261 261 261 260 261 261 260 260 260 261 261 261 261 261 262 262 262 262 262 261 261 261 261 261 261 261 261 261 261 261 261 261 261 261 261 261 260 260 260 260 260 260 260 260 260 260 260 260 260 260 260 260 260 260 260 259 259 258 258 258 258 258 258 258 258 258 258 259 259 260 260 261 262 262
Wind_Speed
36 36 35 35 35 34 33 32 31 29 29 27 26 25 24 22 21 19 19 17 15 14 13 12 11 10 9 8 7 6 5 4 4 3 2 1 1 1 1 1 0 0 1 1 2 3 3 3 4 5 6 7 8 9 9 8 8 9 9 11 13 11 11 13 13 21 35 37 28 23 25 30 31 28 30 34 33 32 31 31 31 32 32 32 30
37 36 36 35 35 35 34 32 31 30 29 28 26 25 23 22 21 20 19 17 15 14 13 12 11 10 9 8 7 5 4 4 3 3 2 2 2 2 1 1 1 1 1 2 2 3 4 4 5 6 6 7 8 9 9 9 10 11 13 14 16 15 11 13 15 18 28 38 33 26 27 30 31 29 28 30 32 32 31 31 32 32 31 31 30
37 37 36 36 35 35 34 33 31 30 29 28 26 25 23 22 21 20 19 18 16 14 12 11 10 9 8 7 6 5 4 4 3 3 2 2 2 2 2 1 2 2 2 3 3 4 5 5 6 7 7 8 8 9 9 10 11 13 16 17 17 16 12 11 16 17 23 33 33 27 27 30 32 30 28 28 29 30 31 32 32 31 31 30 30
38 37 37 37 36 36 34 33 32 30 29 28 26 25 24 23 21 20 19 17 16 15 13 11 10 9 8 6 5 5 4 3 3 2 3 3 2 2 2 3 3 3 3 4 4 5 6 6 6 7 8 8 9 10 10 11 13 15 18 19 16 15 15 13 14 17 21 28 32 27 25 29 31 30 28 28 28 29 31 32 32 31 30 29 29
38 38 38 38 37 36 35 34 32 31 30 28 26 25 24 23 22 20 19 17 16 14 13 12 10 8 7 6 5 5 4 3 3 3 3 3 2 3 4 4 4 4 4 5 5 5 6 6 7 7 8 9 10 11 12 13 15 17 18 18 16 16 17 15 14 15 17 23 28 27 24 26 29 29 26 27 31 33 32 31 31 30 30 30 31
40 40 40 39 38 37 36 35 33 32 30 28 27 26 25 24 22 21 19 17 16 14 13 11 10 8 7 6 5 5 4 4 4 4 3 3 4 4 5 5 5 5 5 6 5 6 6 6 7 7 8 9 10 11 13 14 16 18 17 16 17 17 16 14 12 12 15 18 22 25 23 23 25 27 25 25 30 33 33 32 31 29 29 31 32
41 41 40 40 39 38 37 35 34 32 30 29 28 27 25 24 23 21 19 17 16 14 13 12 10 9 8 7 6 5 5 4 4 4 4 5 5 6 6 6 7 7 6 6 6 6 7 6 7 7 7 9 10 11 13 15 16 16 16 16 16 15 13 12 11 13 16 19 20 21 22 21 22 25 26 27 28 29 30 31 32 32 31 31 33
41 41 41 40 40 39 38 36 34 32 31 29 28 27 26 24 23 21 19 18 16 14 13 12 11 9 8 7 7 6 5 4 4 4 5 6 6 7 8 7 8 8 7 7 7 7 7 6 6 7 8 9 10 11 13 14 14 14 14 14 14 14 14 15 16 17 19 21 21 21 23 23 23 26 28 28 27 28 28 29 32 34 33 32 32
41 40 40 40 40 39 38 36 35 33 32 31 29 28 27 25 23 21 20 18 16 15 14 12 11 10 9 8 7 6 5 4 4 5 7 7 8 8 9 9 8 9 8 7 8 7 7 7 7 7 8 9 10 12 12 11 12 13 14 13 13 14 16 17 17 19 21 21 21 21 22 23 24 28 29 28 28 31 32 32 32 34 35 34 33
41 40 40 40 39 39 39 38 36 35 33 32 31 29 28 26 24 22 20 18 17 15 14 13 12 11 10 9 8 7 6 5 5 7 8 8 9 9 10 10 9 9 9 8 8 8 7 7 8 8 9 10 11 12 11 10 10 11 12 12 12 14 15 17 18 19 21 22 22 21 20 20 24 28 30 32 32 32 32 32 32 35 35 31 29
40 40 40 39 39 39 39 39 38 37 35 33 32 31 29 27 25 24 22 19 18 16 15 14 13 12 11 10 9 8 6 6 6 7 9 10 11 11 11 12 11 10 10 10 10 9 9 8 9 10 11 11 12 12 11 10 10 10 10 10 11 12 14 18 21 21 21 22 23 22 21 23 28 30 29 31 33 31 32 32 32 34 32 24 22
40 40 40 39 39 40 40 40 39 38 36 35 34 32 30 29 27 25 23 21 19 18 17 16 14 14 13 12 10 9 7 7 7 8 9 10 12 12 12 13 13 12 12 11 11 11 10 10 10 11 11 11 11 12 11 11 10 9 10 10 11 12 14 17 21 22 22 23 25 26 26 27 29 27 24 27 30 29 29 30 30 30 28 23 22
40 39 39 39 40 40 40 40 40 40 38 37 35 34 32 31 29 27 25 23 21 20 19 17 16 15 15 13 11 10 9 8 8 9 10 11 11 13 14 14 14 14 13 13 12 11 11 11 12 11 11 10 11 11 11 11 10 10 12 13 15 16 17 17 19 21 23 25 28 30 30 28 28 28 27 28 31 31 29 29 27 25 24 24 24
38 37 38 39 40 39 40 41 41 41 40 38 37 36 35 33 30 28 26 24 23 22 20 19 18 17 16 14 13 12 10 10 10 10 11 12 12 14 15 16 15 15 15 14 13 13 12 12 13 12 10 10 10 10 10 11 12 15 17 19 19 19 18 19 21 22 24 25 27 30 31 30 30 33 34 33 33 33 32 31 30 28 29 30 29
35 36 38 39 39 40 41 41 41 41 41 40 39 38 37 35 32 31 29 26 25 23 22 21 20 19 17 15 15 14 12 11 11 12 12 13 13 14 16 17 16 16 16 15 15 14 13 13 13 11 10 9 8 9 10 12 15 18 20 19 19 19 20 21 22 23 24 25 26 29 30 30 31 33 35 35 34 34 34 34 34 33 33 32 30
35 37 38 38 39 41 42 42 42 42 42 41 41 40 39 37 35 33 30 28 26 25 24 22 21 20 19 18 17 15 14 13 13 13 14 14 15 16 17 17 17 17 17 16 16 14 13 12 12 10 10 9 8 8 10 13 15 18 19 19 21 22 23 21 20 21 24 24 24 25 27 28 30 31 32 32 32 33 34 34 31 29 30 28 25
38 39 38 39 41 42 43 43 42 42 42 42 42 42 41 39 37 35 32 31 30 28 26 24 23 22 20 20 19 17 15 15 15 14 15 15 16 18 18 18 18 18 18 17 16 14 13 12 11 10 11 9 9 9 11 13 15 17 19 22 23 23 23 23 23 23 22 21 21 24 27 29 30 29 29 27 26 28 29 28 27 26 26 21 17
40 39 39 40 41 42 42 43 43 42 43 44 44 44 42 41 39 37 35 33 32 30 28 26 25 23 22 22 20 18 17 16 16 16 16 17 18 19 19 19 19 19 19 18 17 15 13 11 10 10 11 10 10 11 12 13 15 18 20 22 22 22 24 27 27 24 21 22 26 29 30 31 29 28 26 24 23 23 23 23 24 25 22 17 17
40 39 40 40 40 41 42 42 42 43 44 45 45 45 43 42 40 38 36 35 33 32 30 28 26 25 24 23 22 20 19 18 18 18 17 18 19 20 20 20 20 20 20 18 17 16 13 11 9 10 12 12 12 12 12 12 15 18 19 19 21 24 26 25 23 22 25 30 33 32 31 29 27 26 24 22 21 20 19 20 22 22 20 19 21
38 38 39 38 39 41 42 42 42 43 45 46 45 44 43 42 40 39 38 37 35 33 31 30 28 27 26 25 24 23 21 20 20 19 19 19 20 21 22 21 21 21 20 19 18 16 13 11 9 10 12 13 12 12 11 13 15 17 17 18 21 24 24 21 20 23 29 32 32 30 29 27 26 24 23 21 20 19 19 19 19 20 20 21 22
37 38 38 37 39 41 41 41 42 43 45 44 43 43 42 41 40 40 39 38 36 34 33 31 30 29 28 27 26 25 24 22 21 20 20 20 21 22 24 23 21 21 20 19 18 16 14 12 10 10 11 12 11 11 12 13 14 15 18 19 20 20 20 20 22 26 28 28 27 26 26 26 25 24 22 21 20 20 20 19 18 19 19 20 21
36 36 36 37 38 39 39 40 41 42 43 42 41 41 40 40 39 39 38 38 36 35 34 32 31 30 30 29 28 28 26 24 23 22 22 22 22 22 24 24 22 20 20 20 20 18 15 13 10 10 11 11 11 12 13 13 13 15 17 17 16 16 17 20 23 25 24 23 24 25 26 25 25 24 23 23 22 23 22 21 19 19 19 20 21
33 33 34 35 36 36 38 39 40 40 41 40 40 39 39 38 37 36 36 36 35 35 34 33 32 32 31 31 31 30 28 26 24 23 22 22 23 23 23 23 22 21 21 22 21 18 15 13 12 11 11 11 12 12 11 12 13 14 16 15 14 15 18 20 21 20 20 21 23 24 25 24 24 24 25 25 25 25 25 24 23 22 21 21 22
29 30 32 33 34 35 36 37 38 39 39 38 37 37 37 36 36 35 35 35 35 35 35 34 33 33 34 34 34 32 30 28 26 23 22 22 23 23 22 22 22 21 21 22 21 18 16 16 15 13 12 12 11 10 10 12 13 14 13 12 13 16 18 19 18 17 19 21 22 24 25 24 23 24 24 25 25 25 25 25 25 24 24 24 24
27 28 30 31 32 33 34 34 35 37 37 37 37 37 37 36 36 35 35 35 36 36 35 34 34 35 35 36 36 33 30 28 26 23 22 22 23 22 22 22 22 22 22 23 22 19 18 17 15 13 13 13 11 11 14 16 16 14 12 12 14 16 17 16 15 16 18 20 21 23 25 24 23 23 23 23 24 25 26 27 27 27 26 27 27
26 27 28 30 31 31 32 32 34 35 36 37 37 38 38 38 38 37 37 37 37 37 36 35 35 35 36 36 36 33 30 27 25 23 23 23 23 22 22 22 21 21 22 23 22 19 17 16 15 15 15 14 13 15 17 17 16 15 14 14 15 15 14 14 14 15 17 19 21 22 24 24 23 22 22 23 24 24 26 28 29 30 29 29 30
24 25 26 28 29 30 31 32 33 34 35 35 36 37 38 38 38 38 38 38 38 38 37 36 36 36 36 37 34 30 28 27 26 24 24 24 24 22 22 22 21 21 22 23 22 21 20 19 17 16 15 15 16 17 17 16 17 16 15 14 14 13 13 13 14 14 16 18 20 21 22 22 22 22 23 23 24 25 25 26 28 29 30 30 30
22 23 24 26 27 28 30 32 33 34 35 36 37 38 39 39 40 41 42 42 42 42 40 39 39 38 37 34 30 27 28 29 27 25 24 23 23 22 22 23 23 23 24 24 22 21 21 20 19 18 19 20 20 19 18 18 18 17 15 14 13 13 13 13 13 13 14 15 17 20 21 21 21 22 23 24 24 25 25 25 26 28 29 28 26
19 21 22 23 25 27 28 30 32 33 34 35 37 38 39 40 41 43 43 42 41 41 39 39 39 37 34 32 29 28 29 28 25 22 21 20 20 21 22 22 23 23 22 20 18 18 19 19 21 21 23 23 22 20 19 19 19 17 15 14 13 13 13 13 13 13 13 14 16 18 19 20 21 21 22 24 25 24 25 25 25 27 28 26 24
18 20 21 23 24 26 28 30 31 32 33 34 35 36 36 37 38 39 39 38 37 36 35 35 34 31 30 30 29 28 27 24 20 17 18 18 18 19 20 20 20 19 18 16 17 20 21 22 23 24 24 23 22 20 19 19 19 18 15 14 14 14 13 13 13 13 14 15 16 17 18 19 20 21 22 24 25 25 24 24 25 25 26 25 24
19 20 22 23 25 26 28 29 30 31 32 33 33 34 34 34 35 36 35 35 34 33 32 30 29 27 27 27 26 24 23 21 19 17 17 17 17 18 18 18 18 18 17 17 21 24 24 22 22 23 23 23 21 19 18 19 19 18 16 15 15 14 13 13 12 13 14 15 16 16 16 17 19 20 21 23 24 25 25 24 24 24 24 24 24
21 22 23 24 25 25 27 28 29 30 31 31 32 32 32 32 32 32 31 30 29 29 29 27 25 23 23 23 22 21 20 19 18 17 15 14 16 17 18 18 19 19 19 21 24 25 24 22 23 24 23 22 20 19 21 21 20 18 17 16 16 15 14 13 12 13 15 15 15 16 16 16 17 19 20 21 23 24 24 24 23 24 24 24 23
22 23 23 24 24 25 27 28 29 31 31 31 31 31 31 30 30 29 27 25 24 24 24 24 22 19 17 17 18 18 18 16 15 14 14 15 16 17 18 19 20 20 20 22 24 24 23 23 25 25 23 21 21 22 23 22 21 19 18 17 17 16 14 13 13 14 14 14 14 15 15 16 17 18 19 21 21 22 23 22 22 23 24 24 24
20 22 23 23 24 26 27 29 30 30 31 30 30 30 30 30 28 25 22 22 22 21 21 21 19 17 16 16 16 15 15 15 14 14 15 16 16 16 18 19 20 19 20 22 24 24 24 25 26 25 23 22 22 23 23 22 21 19 18 18 17 16 15 14 14 14 14 14 14 14 15 16 16 17 19 20 21 21 21 20 21 23 23 22 23
20 22 23 24 24 25 26 27 28 28 28 28 28 28 27 26 25 23 21 21 21 21 20 19 17 16 15 14 14 14 14 14 14 15 15 15 15 15 16 18 19 19 20 22 24 24 24 25 26 25 22 22 22 23 23 22 21 19 19 18 17 17 16 15 14 14 15 15 14 15 16 16 16 16 17 19 20 20 20 21 21 21 22 22 23
20 21 22 23 23 24 24 24 24 25 25 25 25 24 24 23 22 21 20 19 19 19 18 18 19 18 17 16 16 16 15 13 13 12 12 13 13 14 16 19 20 19 20 23 25 26 26 25 24 23 22 23 24 23 23 22 20 19 18 18 17 17 17 16 15 15 15 15 16 16 16 16 16 15 16 18 19 18 19 21 21 20 21 22 22
19 20 21 21 21 22 22 21 21 21 21 21 21 21 20 20 19 18 18 17 16 16 16 16 17 19 19 18 18 18 17 17 16 15 14 13 13 15 17 19 20 20 21 22 23 25 26 26 25 24 24 24 24 23 23 22 20 19 18 18 18 17 17 17 16 16 16 17 17 16 16 16 16 15 15 18 19 19 20 21 20 20 22 22 22
17 18 19 19 19 20 20 19 18 18 18 18 18 17 17 17 17 16 16 16 16 15 15 15 16 17 18 17 17 17 18 18 18 18 18 17 17 18 19 20 19 20 21 21 21 23 25 26 26 25 24 24 24 24 24 23 21 19 18 18 18 18 17 17 17 17 17 18 17 17 17 17 16 15 14 16 19 20 21 20 19 20 23 24 23
16 17 17 17 17 17 17 17 16 16 16 16 15 15 15 15 15 15 16 16 15 15 15 15 15 15 15 14 14 15 16 16 16 16 16 16 17 18 20 21 23 23 24 24 24 24 25 25 24 23 24 25 26 25 24 23 21 20 18 18 18 18 18 18 18 18 18 18 18 18 18 18 17 15 14 15 18 19 19 19 19 21 23 24 24
14 14 14 14 15 15 15 15 15 15 15 15 14 15 15 15 15 16 16 15 15 14 14 14 14 13 12 12 12 12 13 14 13 13 13 13 14 15 17 19 22 23 24 24 24 24 24 24 24 24 25 25 24 23 23 22 20 19 19 18 19 19 19 18 18 19 19 19 19 19 19 19 18 16 15 16 17 17 17 19 21 22 22 22 23
11 11 11 12 13 13 13 13 14 14 14 14 14 15 15 15 15 15 14 14 14 14 13 13 13 11 10 10 10 10 11 13 13 12 13 13 13 14 15 16 18 19 20 20 20 21 22 22 22 23 22 22 21 21 21 20 19 19 19 18 19 19 20 19 19 19 20 20 20 20 19 19 18 17 17 17 17 17 17 18 20 21 21 22 22
8 9 9 10 11 11 11 12 13 13 13 14 14 14 14 14 14 14 14 13 13 12 12 12 11 10 9 9 8 8 11 13 13 12 12 13 14 15 15 15 16 16 17 18 18 19 19 20 20 21 21 20 20 20 19 19 18 18 18 19 19 20 20 20 20 20 20 21 21 20 19 18 18 18 18 18 17 17 18 19 20 20 21 22 22
7 8 9 9 9 9 10 11 12 12 13 13 13 13 13 13 13 13 13 12 12 12 11 11 10 9 8 8 9 10 12 13 14 13 14 14 15 16 16 15 16 15 15 16 17 18 19 20 21 21 20 19 19 18 18 18 18 19 19 20 20 21 21 21 21 20 20 20 20 19 19 19 19 19 19 18 17 17 18 18 19 19 20 22 23
8 9 9 9 8 8 9 9 10 10 11 11 12 12 12 11 11 11 11 11 11 11 10 9 9 8 8 9 9 11 11 12 13 13 14 14 15 15 15 15 16 17 17 17 18 19 20 21 20 19 19 18 18 18 19 19 19 20 20 21 21 22 22 22 21 19 19 19 19 19 19 19 19 19 19 18 17 18 18 17 18 19 20 22 23
6 8 8 8 8 8 8 9 9 9 10 10 11 11 10 10 10 10 10 10 9 9 9 9 8 8 8 8 9 9 9 9 10 10 11 11 11 12 12 13 14 15 16 16 17 17 18 18 18 18 18 18 17 18 19 19 19 20 21 21 22 23 22 21 19 18 18 19 19 19 19 19 19 19 18 18 18 18 18 17 17 18 20 22 23
5 6 7 8 8 8 8 9 9 9 9 10 10 10 10 10 9 9 9 9 9 9 9 8 8 9 9 8 8 8 8 8 9 10 10 10 11 11 11 11 12 13 14 15 15 15 16 17 17 18 19 19 19 19 19 19 20 20 20 21 21 21 21 19 18 18 18 18 18 19 19 19 19 18 18 19 19 18 18 17 16 17 19 22 23
5 6 7 8 8 8 8 9 9 9 9 9 9 9 9 9 9 9 9 9 9 9 9 8 9 9 9 8 8 8 8 9 10 10 11 11 11 11 11 11 12 13 14 14 15 15 16 16 17 18 19 20 20 20 20 20 19 19 20 20 20 20 19 18 17 17 17 17 18 19 19 19 19 19 19 19 20 18 17 16 15 16 19 21 23
6 6 7 8 8 9 9 9 10 10 10 10 10 10 9 9 9 9 8 8 8 8 9 9 9 9 8 8 8 8 9 10 11 12 12 12 12 11 11 12 13 13 14 14 14 15 15 16 17 18 19 19 20 20 20 20 19 19 19 19 18 18 17 16 16 17 17 17 18 19 19 19 19 19 19 19 18 17 16 15 15 16 19 21 22
6 6 7 8 8 9 9 10 10 10 9 9 9 9 9 9 9 9 8 9 9 9 9 9 9 8 8 8 9 9 10 11 12 12 12 12 11 11 12 12 13 13 14 14 14 14 15 16 17 18 18 19 19 19 19 19 19 18 18 18 17 17 17 17 17 17 17 17 18 18 18 18 18 17 17 17 16 15 15 16 16 17 18 20 21
6 6 6 7 7 8 8 8 8 9 9 9 9 9 9 9 9 9 9 9 9 9 9 9 9 9 9 10 10 11 12 12 13 13 12 12 12 12 12 13 14 14 15 15 14 14 15 15 16 17 17 18 18 18 18 18 18 18 17 17 17 17 17 17 18 17 17 17 17 17 16 16 15 15 15 16 15 15 16 17 18 18 19 19 21
4 5 5 6 6 7 7 7 8 8 8 8 9 9 9 9 9 9 9 9 9 9 9 9 9 10 10 10 11 12 12 12 13 13 13 13 13 13 13 14 14 14 15 15 15 15 15 15 16 16 17 17 18 18 18 18 18 17 18 17 17 18 17 17 17 17 16 16 15 15 14 14 15 16 17 17 16 17 18 20 20 20 19 19 21
Wind_Direction
172 173 173 174 174 173 172 170 167 166 163 161 159 154 150 148 147 146 147 149 150 149 147 146 143 139 137 135 135 136 137 140 142 148 156 165 163 168 193 191 223 169 88 12 357 358 359 3 352 337 337 342 345 347 348 351 347 334 326 321 320 320 312 305 289 287 300 306 308 314 318 318 320 323 325 326 328 331 331 330 331 331 329 328 328
175 175 175 176 176 174 172 170 169 167 165 163 160 155 153 152 151 151 152 152 151 150 149 147 146 144 142 140 141 142 142 145 152 162 171 187 194 208 223 220 276 315 2 351 342 343 342 347 347 337 337 342 344 346 346 345 339 329 327 324 322 322 316 305 299 291 297 304 308 316 320 320 320 323 328 326 326 328 327 326 329 329 329 329 327
178 178 178 178 177 175 173 172 171 169 168 166 162 158 157 156 155 156 155 154 153 152 151 150 149 149 147 143 142 146 151 156 165 177 186 199 211 227 253 273 296 315 331 331 329 328 331 337 339 334 334 339 342 343 343 340 334 327 324 324 323 322 317 304 299 296 295 300 306 317 323 322 320 322 325 324 323 325 323 322 325 326 326 327 325
180 180 179 179 177 176 175 174 174 173 171 168 165 162 161 159 159 160 159 156 155 155 155 155 155 152 147 145 148 155 162 169 185 204 212 218 231 251 275 288 298 312 318 320 319 318 322 327 329 329 330 335 341 341 340 335 329 324 322 324 327 324 320 313 302 297 296 299 305 314 321 320 319 321 325 324 323 322 320 320 322 322 323 323 322
182 182 181 180 178 178 178 177 177 176 173 171 168 166 165 163 163 164 163 160 158 159 159 158 158 153 148 151 158 167 177 190 209 226 235 245 265 279 285 289 297 305 306 308 311 310 313 317 321 325 328 332 337 337 335 330 323 321 323 326 330 328 323 320 311 302 296 296 303 313 319 320 318 320 325 326 323 321 320 319 320 320 320 320 319
184 183 183 181 180 181 181 180 180 179 176 173 172 170 169 168 167 168 167 164 161 161 161 160 159 156 155 160 167 180 194 209 224 237 251 268 281 285 287 292 295 297 296 296 302 305 305 309 316 321 324 327 330 330 326 321 319 321 325 328 330 328 323 319 313 307 302 299 305 312 316 320 319 318 323 326 321 318 318 317 317 317 317 317 317
186 185 184 184 183 183 183 183 183 181 179 177 176 174 173 172 172 171 170 168 165 163 163 165 164 161 162 169 179 193 206 221 240 254 268 279 284 286 287 288 288 288 291 294 297 301 303 305 310 315 319 320 323 323 318 316 318 320 322 325 325 324 319 314 309 306 305 304 305 308 311 315 316 314 317 320 316 312 314 314 313 314 315 314 313
187 187 186 186 186 186 186 187 186 184 182 180 179 178 177 177 176 174 172 171 169 166 167 169 169 169 171 178 189 201 213 233 255 270 278 281 283 285 284 283 284 286 288 293 297 300 303 305 308 311 314 315 314 312 309 310 314 314 316 320 320 316 311 308 306 305 305 304 304 307 308 308 310 311 313 316 314 311 313 311 308 308 310 310 309
188 188 188 188 188 189 188 189 188 186 185 184 183 183 182 181 180 179 177 175 172 171 173 175 176 177 181 190 198 203 216 239 263 273 276 279 281 281 281 279 281 284 287 291 295 298 301 303 308 310 309 307 303 300 300 302 306 306 310 314 313 311 310 308 307 306 304 301 300 301 299 297 304 310 309 309 307 305 307 306 301 302 306 305 304
190 190 190 190 191 190 190 190 190 189 188 187 187 187 186 185 185 184 182 180 178 178 180 182 183 186 189 197 202 206 219 239 260 270 274 277 279 280 282 284 285 287 292 294 293 297 301 303 307 307 304 303 301 300 300 298 296 299 304 308 309 309 308 305 304 302 300 297 294 293 291 289 299 304 302 303 303 300 301 301 298 300 303 301 298
191 192 193 193 193 192 192 192 192 192 191 191 192 191 190 190 189 188 187 185 184 184 188 191 191 193 197 201 206 211 221 237 255 269 276 279 281 285 287 288 291 291 294 297 296 297 300 301 302 302 301 303 303 304 302 297 296 297 298 300 300 300 301 300 299 298 296 294 294 295 293 292 297 299 296 300 303 298 296 297 296 298 300 296 295
193 195 195 194 195 194 193 193 193 194 194 194 196 195 194 194 193 193 192 190 190 191 194 197 198 200 204 206 211 213 219 236 252 265 274 277 282 287 288 288 289 290 291 293 293 295 298 299 299 298 299 301 302 303 303 302 304 305 300 296 292 293 295 295 297 298 299 300 301 299 296 293 294 296 296 300 303 298 294 295 293 290 290 289 290
196 197 196 196 196 195 195 194 195 197 197 198 199 198 198 199 197 198 197 195 195 197 199 203 204 207 209 210 215 218 221 233 249 259 268 272 274 279 284 285 285 287 288 289 289 292 293 294 295 294 294 296 298 303 307 310 318 323 319 312 305 304 303 298 296 298 299 299 295 292 294 296 295 298 303 305 303 299 294 294 295 294 294 296 298
197 197 197 198 198 196 196 197 197 199 199 200 201 201 202 203 201 202 202 200 200 202 204 207 209 211 213 213 217 221 222 230 245 256 261 265 267 270 276 278 279 282 284 285 287 288 288 289 289 289 291 293 303 314 317 320 325 325 321 315 311 312 313 308 305 303 301 299 295 295 302 305 302 303 307 308 306 304 304 306 309 310 306 305 306
199 200 200 200 199 197 198 199 198 200 201 202 203 204 205 205 205 206 206 205 206 207 208 212 213 215 216 217 221 223 223 229 241 250 255 260 263 265 269 273 275 277 278 280 283 284 283 281 281 286 290 297 318 327 316 316 318 315 312 310 310 313 314 311 309 308 307 306 303 303 305 305 304 305 308 310 311 310 311 311 310 310 308 308 310
201 203 202 201 200 200 201 200 200 202 203 204 205 206 207 207 208 209 209 209 211 212 213 215 217 219 219 220 223 224 224 229 237 245 252 256 258 260 264 268 270 272 275 277 278 279 278 277 278 285 289 301 328 325 300 299 306 305 306 309 309 310 309 307 307 306 306 305 304 304 304 305 308 309 310 312 312 312 313 312 312 315 314 310 309
204 205 203 203 203 203 202 202 202 203 204 205 207 208 209 210 210 211 210 211 213 215 216 217 219 222 223 224 226 226 226 231 236 242 248 253 255 258 261 264 267 269 271 273 275 276 275 274 277 282 286 302 323 308 289 292 298 302 306 307 308 308 307 307 311 312 309 305 304 306 307 309 311 311 313 315 315 318 320 317 318 320 315 309 305
207 205 205 206 205 205 205 205 205 205 206 208 210 210 211 212 213 213 213 215 218 218 219 219 221 224 226 227 228 228 228 231 236 241 246 250 254 257 259 261 263 266 268 270 272 273 272 272 274 278 284 298 303 289 284 292 298 303 306 306 306 307 307 311 317 318 311 305 305 309 311 314 317 319 323 324 324 326 324 318 318 319 314 312 312
208 207 208 208 207 207 208 208 208 207 209 213 214 213 214 214 215 216 216 218 221 222 221 221 223 226 229 230 230 229 229 231 235 240 243 246 250 255 257 257 259 263 265 266 268 268 268 270 271 268 271 280 283 280 284 292 297 301 304 304 305 305 308 315 318 312 307 307 310 314 318 322 326 330 333 331 330 331 328 322 322 322 319 318 317
210 210 211 210 210 211 211 210 210 212 215 217 217 216 216 216 216 217 218 219 221 223 224 224 225 227 230 232 233 232 231 231 235 239 241 243 246 251 254 256 258 262 263 264 265 265 262 265 269 262 260 267 272 274 281 291 296 299 300 301 302 305 310 313 306 302 305 308 312 317 322 328 334 337 337 336 334 334 331 328 328 327 324 321 317
212 213 212 212 213 214 214 214 215 217 219 220 220 219 218 219 219 219 220 220 221 222 224 225 226 228 230 232 234 235 234 232 233 237 239 240 241 245 251 256 258 260 261 260 259 258 258 262 266 258 256 262 267 271 281 291 295 295 294 295 299 304 307 303 298 300 305 308 313 321 328 333 337 338 339 338 335 334 330 327 327 325 321 316 312
215 214 213 213 215 216 217 218 219 220 221 222 221 221 221 220 221 221 221 221 221 223 224 225 226 228 230 232 234 236 236 235 233 234 236 239 239 240 247 256 259 258 259 257 254 256 258 257 260 259 255 256 262 271 282 292 295 292 291 294 299 302 297 293 296 301 305 311 320 327 331 334 335 336 338 337 335 334 331 327 325 322 317 312 307
216 215 214 216 218 219 220 221 221 221 222 223 223 223 223 222 222 222 222 221 222 223 224 225 226 229 230 232 234 236 237 237 235 234 234 237 238 238 243 251 255 255 256 256 256 257 256 254 257 258 251 251 263 275 285 293 295 293 295 299 301 295 289 290 297 303 309 318 326 328 328 330 331 332 334 334 334 334 332 329 328 324 319 314 309
216 216 217 219 221 223 223 223 223 223 224 224 224 224 224 224 223 223 223 223 223 224 225 225 226 228 231 233 234 235 237 238 238 237 236 237 239 240 241 244 246 248 252 255 257 255 254 255 258 255 248 253 262 270 281 291 295 296 301 304 296 287 287 294 303 310 315 321 325 324 324 326 327 328 331 332 332 333 332 330 329 326 323 320 317
217 219 221 222 223 224 224 225 225 226 226 225 225 224 224 224 224 224 223 223 223 225 226 226 227 229 231 234 235 236 237 239 239 238 238 239 239 240 241 241 240 240 244 250 255 256 254 255 255 252 251 252 253 261 279 293 300 301 300 295 288 287 292 300 308 313 316 319 321 320 320 323 325 326 329 331 332 334 334 331 330 330 329 326 323
220 222 223 224 225 224 225 225 226 226 227 227 227 228 227 226 225 224 223 223 224 225 227 227 228 230 232 235 237 236 236 239 240 239 239 241 241 240 240 240 239 238 242 247 251 253 252 251 252 254 252 250 255 268 283 296 303 299 292 287 287 290 297 303 307 311 313 314 315 315 317 321 324 326 330 332 333 335 335 332 330 331 333 332 327
223 224 224 224 224 224 225 225 225 225 226 226 226 227 228 227 226 224 223 223 223 225 227 228 228 229 232 235 237 238 238 238 238 237 237 241 245 245 241 239 238 238 241 244 246 247 248 249 252 256 256 257 265 273 280 293 301 296 288 286 289 293 299 302 303 304 305 307 310 312 316 319 322 328 333 333 332 334 336 334 331 331 333 333 329
223 224 225 224 224 225 225 226 226 225 225 225 225 226 227 226 226 228 229 228 226 226 226 227 228 230 232 234 236 239 240 239 239 240 242 243 246 247 245 243 241 239 240 242 245 248 250 249 249 252 255 257 263 268 274 290 302 297 287 286 290 293 298 299 298 298 299 303 307 311 316 319 322 329 333 331 329 332 336 335 332 331 332 333 328
222 224 225 225 226 227 226 227 228 227 227 227 227 228 229 230 230 232 234 233 233 232 232 233 235 236 237 239 240 239 242 246 249 252 253 251 248 247 247 247 247 246 245 245 248 253 254 249 247 249 251 251 254 261 273 290 299 293 285 286 289 291 295 298 301 304 306 309 312 313 316 318 321 328 330 326 325 331 335 335 333 332 331 330 325
220 223 224 226 228 228 228 229 230 230 229 230 229 230 231 233 235 236 237 237 238 239 240 243 245 246 247 248 247 247 251 257 259 255 252 251 249 250 251 252 252 251 248 245 247 251 250 246 244 245 246 246 250 259 273 289 296 290 283 284 287 290 293 297 303 308 311 313 315 315 315 316 319 324 324 321 323 329 332 333 334 332 330 327 323
223 225 226 229 230 231 231 231 231 231 232 232 232 232 233 235 237 239 241 242 242 243 244 246 249 250 250 251 251 251 253 256 257 255 252 249 245 243 245 247 245 245 245 245 245 246 245 242 242 244 243 243 249 264 279 290 293 288 283 283 285 288 292 297 302 307 310 314 316 315 315 316 316 318 320 319 322 325 328 331 333 332 329 326 322
232 233 233 233 233 233 233 233 233 233 232 232 233 233 234 235 237 239 239 241 243 244 244 243 244 245 248 251 252 251 251 252 255 255 250 242 238 238 241 244 244 245 247 248 248 248 246 244 244 245 243 244 255 272 284 289 288 284 281 281 283 285 290 297 302 304 307 312 315 315 316 316 315 316 319 319 320 322 324 328 331 330 329 327 323
240 241 240 238 236 234 234 233 233 233 233 232 232 232 231 233 236 238 237 237 240 243 242 240 238 236 236 241 246 250 254 257 256 250 242 239 241 243 245 248 249 250 252 253 253 255 254 251 247 243 243 251 265 277 282 285 284 280 278 278 280 284 290 295 297 299 304 309 311 313 315 315 315 316 317 318 319 320 321 323 326 328 328 326 324
246 246 245 244 240 238 237 235 234 234 234 233 233 233 232 233 236 237 235 232 232 235 236 235 234 235 235 236 238 243 249 254 254 250 246 245 248 250 252 253 253 251 251 253 256 259 258 253 246 243 247 259 270 276 279 282 281 277 275 276 279 282 286 290 292 296 303 306 307 311 315 316 315 315 315 315 318 318 317 319 323 326 327 325 323
248 248 247 247 245 243 242 240 237 236 235 234 234 235 236 236 236 237 235 232 230 231 231 227 224 225 229 233 235 237 242 249 252 253 252 252 254 255 257 256 253 250 249 251 256 263 262 254 246 245 254 265 272 276 280 282 279 275 275 277 278 279 283 287 290 294 300 303 306 311 314 313 312 313 313 313 314 314 314 317 320 323 325 324 322
251 250 249 249 248 247 247 245 242 240 239 238 238 238 238 238 237 236 236 236 234 233 231 225 219 216 219 224 229 233 237 243 249 254 258 259 259 257 256 257 257 256 255 254 256 261 263 258 252 253 261 269 273 278 282 281 276 274 274 276 277 279 282 286 290 294 297 301 304 308 309 308 310 315 315 312 310 309 311 314 316 319 323 324 322
255 255 254 253 251 249 247 246 244 242 241 240 239 237 236 236 236 235 233 232 231 230 227 223 219 220 224 230 237 240 241 243 245 249 252 254 255 254 255 258 260 260 260 259 257 258 260 260 260 262 266 270 274 279 282 280 277 274 273 274 276 279 281 285 289 293 296 299 301 304 306 307 310 313 313 310 308 308 310 312 313 316 321 323 323
256 256 255 252 249 246 243 241 239 237 236 235 234 233 232 231 231 230 228 226 225 224 223 222 224 228 233 238 244 248 250 249 250 250 250 250 249 248 250 255 258 260 262 263 263 264 265 264 263 263 267 273 278 280 280 279 276 273 272 273 275 277 279 283 287 290 293 296 299 302 305 306 307 309 311 308 305 306 309 311 313 317 320 323 323
253 251 249 246 243 240 238 235 232 228 227 226 226 225 225 224 222 221 221 220 221 222 223 225 230 237 243 246 248 252 256 257 257 258 257 254 252 251 253 256 259 261 263 265 266 267 268 266 265 267 272 277 280 280 278 277 276 274 273 273 274 276 278 282 286 290 292 295 299 302 304 305 305 305 304 302 301 304 306 308 313 317 318 319 320
252 248 243 238 234 232 230 227 224 221 220 219 219 217 217 217 217 217 216 216 218 222 226 231 237 243 249 250 251 256 261 264 264 266 267 266 263 261 259 259 260 261 264 267 267 267 268 268 270 274 277 278 279 278 276 275 274 272 272 272 274 277 280 283 286 290 293 296 299 301 302 303 303 301 299 298 299 299 300 305 312 316 317 317 319
250 242 235 230 227 224 221 218 217 217 216 215 214 213 213 214 215 216 217 218 221 224 229 236 242 246 249 250 253 258 266 273 276 278 279 280 279 275 271 267 265 266 268 271 271 269 268 270 273 276 278 277 275 274 273 273 272 272 273 274 275 278 281 283 286 289 292 295 297 298 299 300 299 298 299 297 294 291 294 302 312 316 317 318 320
240 231 225 222 221 219 217 214 212 212 212 212 212 211 211 212 212 214 217 221 225 229 233 238 244 247 247 248 250 252 259 266 272 274 276 276 277 280 281 279 276 274 272 272 272 272 273 276 278 279 280 278 275 273 273 273 274 275 276 277 278 279 281 284 287 289 291 293 295 296 296 296 295 296 296 295 292 291 295 304 313 318 318 319 321
221 217 216 216 217 218 218 217 214 212 211 212 213 211 211 212 213 216 221 224 228 233 236 240 246 248 246 245 244 242 245 249 253 257 262 263 266 274 281 284 284 282 278 275 275 277 279 281 282 282 281 278 275 275 276 276 278 280 280 280 281 282 283 285 288 290 293 294 294 293 292 291 293 294 294 293 292 293 297 303 311 317 318 320 322
209 207 208 209 210 214 217 217 217 217 216 217 217 215 214 216 217 219 224 227 231 236 241 245 249 250 246 244 244 245 248 251 254 258 262 263 265 272 277 278 279 279 277 277 278 278 279 281 281 280 279 276 275 276 277 278 280 281 281 282 282 282 283 286 289 292 294 291 289 290 290 290 290 291 290 290 292 295 298 303 309 315 318 320 321
203 204 205 204 204 207 210 212 216 219 220 221 221 218 218 220 222 224 228 233 237 242 247 250 251 250 247 247 250 252 256 262 266 270 273 274 274 276 276 275 276 276 276 278 279 278 278 280 280 280 280 279 279 279 278 279 280 280 279 280 281 281 284 287 289 290 288 286 285 287 287 286 286 287 287 289 293 296 297 300 306 313 317 319 320
191 196 200 203 205 207 210 212 216 219 221 223 226 225 224 226 228 231 236 239 242 245 245 246 247 249 251 256 261 266 274 280 281 283 283 282 281 281 281 280 279 278 279 280 280 280 280 280 280 282 283 283 283 282 281 280 280 279 278 279 279 280 284 287 287 285 283 281 282 283 281 281 284 285 286 288 292 294 294 296 303 312 316 317 318
192 198 204 210 211 213 215 216 218 221 224 227 231 234 236 237 238 239 239 240 241 242 243 245 249 253 260 268 277 285 290 289 286 285 285 285 286 288 289 287 284 282 281 281 280 281 282 282 283 284 285 284 284 284 282 282 281 280 279 279 279 281 284 285 283 282 281 279 278 277 276 277 280 282 284 287 288 290 291 292 297 307 313 315 317
201 205 210 215 217 219 221 222 222 225 229 231 234 238 240 241 241 240 239 240 241 244 248 253 258 264 273 281 287 289 287 283 281 282 283 286 290 291 291 290 289 287 286 285 284 285 286 286 286 286 285 285 285 284 283 284 283 281 281 281 280 281 283 281 279 279 279 277 276 274 274 275 278 281 284 286 285 284 285 285 290 301 309 312 316
207 210 213 218 220 222 225 226 226 228 230 231 234 237 238 239 241 242 242 244 247 251 257 265 270 275 280 281 281 281 280 278 280 282 284 287 291 293 293 293 293 291 290 289 289 289 288 286 285 285 284 284 285 284 284 284 284 282 283 283 281 280 279 277 276 277 276 275 275 274 273 275 277 280 283 285 283 280 279 280 285 295 302 307 314
211 213 217 220 222 225 227 227 227 228 227 227 230 233 234 237 241 243 246 251 257 263 269 276 279 280 280 280 279 279 278 278 280 284 287 290 293 294 295 295 294 293 293 293 291 291 290 288 286 286 285 284 285 284 284 285 285 284 284 284 281 280 278 275 274 274 273 272 274 274 272 273 277 280 285 289 286 282 281 281 283 289 295 301 309
209 212 218 222 226 228 231 231 230 231 231 232 234 236 238 243 249 253 257 264 269 274 278 281 281 280 279 280 279 279 279 281 283 286 288 292 294 294 295 295 295 295 296 295 294 294 292 289 288 287 286 285 286 286 285 286 286 286 285 283 280 278 276 273 272 272 269 268 271 272 273 275 279 281 285 286 281 277 279 280 280 282 287 293 301